Regional Weather Roundup
Issued by NWS

Home | Current Version | Previous Version | Graphics & Text | Print | Product List | Glossary On
Versions: 1 2 3 4 5 6 7 8 9 10 11 12 13 14 15 16 17 18 19 20 21 22 23 24 25 26 27 28 29 30 31 32 33 34 35 36 37 38 39 40 41 42 43 44 45 46 47 48 49 50
000
ASUS43 KDMX 240601
RWRIA

WEATHER ROUNDUP FOR IOWA
NATIONAL WEATHER SERVICE DES MOINES IA
1200 AM CST TUE JAN 24 2017

NOTE: "FAIR" INDICATES FEW OR NO CLOUDS BELOW 12,000 FEET WITH NO
SIGNIFICANT WEATHER AND/OR OBSTRUCTIONS TO VISIBILITY.

* - THESE STATIONS ARE NOT NWS STATIONS...THUS NOT UNDER NWS
QUALITY CONTROL.  THEY ALSO DO NOT REPORT WEATHER SUCH
AS PRECIPITATION OR FOG.

IAZ001>003-012>014-020>022-031>034-043>046-240700-
   NORTHWEST IOWA

CITY           SKY/WX    TMP DP  RH WIND       PRES   REMARKS
CARROLL *      CLOUDY    32  32 100 SE6       29.84F WCI  26
CHEROKEE *     CLOUDY    32  31  96 CALM      29.84F
DENISON *      CLOUDY    32  28  86 SE9       29.82S WCI  24
LE MARS *      CLOUDY    32  30  93 SE7       29.84F WCI  26
ORANGE CITY *  CLOUDY    30  30 100 SE6       29.82F WCI  24
SHELDON *      CLOUDY    32  32 100 SE9       29.82S WCI  24
SIOUX CITY     CLOUDY    33  30  88 SE8       29.83F WCI  26
6HR MIN TEMP:  32; 6HR MAX TEMP:  34;

SPENCER        CLOUDY    32  30  92 SE3       29.84F
6HR MIN TEMP:  32; 6HR MAX TEMP:  32;

STORM LAKE *   CLOUDY    32  30  93 SE3       29.84S
$$

IAZ055>058-069>071-079>083-090>094-240700-
   SOUTHWEST IOWA

CITY           SKY/WX    TMP DP  RH WIND       PRES   REMARKS
ATLANTIC *     CLOUDY    32  30  93 E8        29.85F WCI  25
AUDUBON *      CLOUDY    30  27  86 SE5       29.85F WCI  25
CLARINDA *     CLOUDY    30  32 100 E5        29.85F WCI  25
COUNCIL BLFS * CLOUDY    30  30 100 E7        29.82F WCI  23
CRESTON *      CLOUDY    30  30 100 E7        29.85F WCI  23
HARLAN  *      CLOUDY    32  32 100 SE8       29.87F WCI  25
LAMONI         CLOUDY    31  28  89 CALM      29.84F
6HR MIN TEMP:  31; 6HR MAX TEMP:  32;

RED OAK *      CLOUDY    30  30 100 E8        29.84F WCI  23
SHENANDOAH *   CLEAR     30  28  93 E9        29.84F WCI  22
$$

IAZ047>049-059>061-072>074-084-240700-
   CENTRAL IOWA

CITY           SKY/WX    TMP DP  RH WIND       PRES   REMARKS
AMES           CLOUDY    32  32 100 SW5       29.87S WCI  27
6HR MIN TEMP:  32; 6HR MAX TEMP:  33;

ANKENY *       CLOUDY    32  30  93 CALM      29.88S
BOONE *        CLOUDY    32  32 100 CALM      29.85S
CHARITON *     CLOUDY    32  28  86 CALM      29.86S
DES MOINES     CLOUDY    33  28  81 S3        29.87F
6HR MIN TEMP:  33; 6HR MAX TEMP:  35;

GRINNELL*      CLOUDY    32  29  89 CALM      29.88S
KNOXVILLE *    CLOUDY    32  28  86 N5        29.86F WCI  27
MARSHALLTOWN   CLOUDY    32  30  92 CALM      29.86S
6HR MIN TEMP:  32; 6HR MAX TEMP:  33;

NEWTON *       CLOUDY    32  28  86 CALM      29.86F
PELLA *        CLOUDY    32  29  90 CALM      29.89F
PERRY *        CLOUDY    33  31  94 CALM      29.86F
$$

IAZ004>006-015-016-023>025-035-036-240700-
   NORTH CENTRAL IOWA

CITY           SKY/WX    TMP DP  RH WIND       PRES   REMARKS
ALGONA *       CLOUDY    32  32 100 CALM      29.85F
CLARION *      CLOUDY    32  32 100 CALM      29.85F
ESTHERVILLE    CLOUDY    31  30  96 S3        29.84F
6HR MIN TEMP:  31; 6HR MAX TEMP:  31;

FORT DODGE *   CLOUDY    32  28  86 CALM      29.86F
MASON CITY     CLOUDY    31  28  89 W3        29.87S
6HR MIN TEMP:  31; 6HR MAX TEMP:  32;

FOREST CITY *  CLOUDY    32  32 100 CALM      29.86S
WEBSTER CITY * CLOUDY    32 N/A N/A CALM      29.84F HAZE
IOWA FALLS *   CLOUDY    33  31  92 CALM      29.87S
$$

IAZ007>011-017>019-026>030-037>042-050>054-066-240700-
   NORTHEAST IOWA

CITY           SKY/WX    TMP DP  RH WIND       PRES   REMARKS
CEDAR RAPIDS   CLOUDY    32  29  88 W6        29.86S WCI  26
6HR MIN TEMP:  31; 6HR MAX TEMP:  32;

CHARLES CITY * CLOUDY    32  32 100 CALM      29.86S
CLINTON *      CLOUDY    33  32  96 W6        29.86S WCI  28
DECORAH *      CLOUDY    32  30  93 W5        29.84R WCI  27
DUBUQUE        CLOUDY    32  31  96 CALM      29.84F
6HR MIN TEMP:  32; 6HR MAX TEMP:  35;

MONTICELLO *   CLOUDY    32  30  93 CALM      29.86S
OELWEIN *      CLOUDY    32  30  93 CALM      29.86S
WATERLOO       CLOUDY    33  28  81 CALM      29.86F
6HR MIN TEMP:  32; 6HR MAX TEMP:  33;

$$

IAZ064-065-067-068-078-240700-
   EAST CENTRAL IOWA

CITY           SKY/WX    TMP DP  RH WIND       PRES   REMARKS
DAVENPORT      CLOUDY    33  31  92 W6        29.86S WCI  28
6HR MIN TEMP:  33; 6HR MAX TEMP:  37;

IOWA CITY      CLOUDY    34  29  82 CALM      29.89S
6HR MIN TEMP:  33; 6HR MAX TEMP:  35;

MUSCATINE *    CLOUDY    34  30  86 W7        29.89S WCI  28
QUAD CITIES    CLOUDY    35  31  85 W5        29.86S WCI  31
6HR MIN TEMP:  35; 6HR MAX TEMP:  39;

$$

IAZ062-063-075>077-085>089-095>099-240700-
   SOUTHEAST IOWA

CITY           SKY/WX    TMP DP  RH WIND       PRES   REMARKS
BURLINGTON     CLOUDY    33  30  88 W5        29.88S WCI  29
6HR MIN TEMP:  33; 6HR MAX TEMP:  36;

FAIRFIELD *    CLOUDY    32  28  86 CALM      29.89R
FORT MADISON * CLOUDY    34  30  86 CALM      29.89S
KEOKUK *       CLOUDY    34 N/A N/A NW6       29.89R WCI  29
OSKALOOSA *    CLOUDY    32  29  90 NW5       29.89R WCI  27
CENTERVILLE *  CLOUDY    32  32 100 CALM      29.87F
OTTUMWA        CLOUDY    33  27  78 CALM      29.88R
6HR MIN TEMP:  32; 6HR MAX TEMP:  33;

WASHINGTON *   CLOUDY    32  30  93 CALM      29.89F
$$

ABBREVIATIONS USED IN REMARKS
   TC - TEMPERATURES IN CELSIUS
  WCI - WIND CHILL INDEX
   HX - HEAT INDEX
  VSB - VISIBILITY
$$





USA.gov is the U.S. government's official web portal to all federal, state and local government web resources and services.